Brno, Czech Republic

6:03 AM CEST on April 30, 2017 (GMT +0200)
Turany

Weather History for LKTB - October, 2012

Change the Weather History Date:

Tuesday, October 16, 2012

  Actual Average Record
Temperature  
Mean Temperature 46 °F -  
Max Temperature 47 °F 50 °F - ()
Min Temperature 44 °F 37 °F - ()
Degree Days  
Heating Degree Days 20    
Moisture  
Dew Point 42 °F    
Average Humidity 86    
Maximum Humidity 93    
Minimum Humidity 64    
Precipitation  
Precipitation 0.43 in 0.04 in - ()
Sea Level Pressure  
Sea Level Pressure 29.87 in    
Wind  
Wind Speed 8 mph ()    
Max Wind Speed 15 mph    
Max Gust Speed -    
Visibility 5.7 miles    
Events Rain    
T = Trace of Precipitation, MM = Missing Value Source: Averaged Metar Reports

Daily Weather History Graph

Daily Weather History Graph

Search for Another Location

Airport or City:

Trip Planner

Search our weather history database for the weather conditions in past years. The results will help you decide how hot, cold, wet, or windy it might be!

Date:

Astronomy

Oct. 16, 2012 Rise Set
Actual Time 7:15 AM CEST 6:00 PM CEST
Civil Twilight 6:43 AM CEST 6:32 PM CEST
Nautical Twilight 6:06 AM CEST 7:09 PM CEST
Astronomical Twilight 5:30 AM CEST 7:46 PM CEST
Moon 8:27 AM CEST (10/16) 6:19 PM CEST (10/16)
Length of Visible Light 11h 49m
Length of Day
10h 44m
New Moon, 1% of the Moon is Illuminated
Oct 16
New Moon
Oct 22
First Quarter
Oct 29
Full
Nov 7
Last Quarter
Nov 13
New

Hourly Weather History & Observations

Time (CEST) Temp. Windchill Dew Point Humidity Pressure Visibility Wind Dir Wind Speed Gust Speed Precip Events Conditions
12:00 AM 48.2 °F - 41.0 °F 76% 29.89 in 6.2 mi WNW 8.1 mph - N/A   Overcast
12:30 AM 48.2 °F - 41.0 °F 76% 29.92 in 6.2 mi WNW 8.1 mph - N/A   Overcast
1:00 AM 48.2 °F - 41.0 °F 76% 29.89 in 6.2 mi NW 8.1 mph - N/A   Overcast
1:30 AM 48.2 °F - 41.0 °F 76% 29.89 in 6.2 mi NW 8.1 mph - N/A   Overcast
2:00 AM 48 °F - 40 °F 64% 29.91 in 12 mi NNW 11.2 mph - -   Partly Cloudy
2:00 AM 48.2 °F - 39.2 °F 71% 29.89 in 6.2 mi NNW 8.1 mph - N/A   Overcast
2:30 AM 48.2 °F - 39.2 °F 71% 29.89 in 6.2 mi NNW 5.8 mph - N/A   Overcast
3:00 AM 48.2 °F - 39.2 °F 71% 29.89 in 6.2 mi North 5.8 mph - N/A Rain Light Rain
3:30 AM 48.2 °F - 39.2 °F 71% 29.89 in 6.2 mi North 8.1 mph - N/A Rain Light Rain
4:00 AM 46.4 °F 42.4 °F 41.0 °F 81% 29.86 in 6.2 mi North 8.1 mph - N/A Rain Light Rain
4:30 AM 46.4 °F 43.5 °F 41.0 °F 81% 29.86 in 6.2 mi NNW 5.8 mph - N/A Rain Light Rain
5:00 AM 44.6 °F 40.2 °F 42.8 °F 93% 29.86 in 3.1 mi NW 8.1 mph - N/A Rain Light Rain
5:30 AM 44.6 °F 40.2 °F 42.8 °F 93% 29.86 in 3.1 mi NNW 8.1 mph - N/A Rain Light Rain
6:00 AM 44.6 °F 39.7 °F 42.8 °F 93% 29.86 in 3.1 mi NNW 9.2 mph - N/A Rain Light Rain
6:30 AM 44.6 °F 40.2 °F 42.8 °F 93% 29.86 in 4.3 mi NNW 8.1 mph - N/A Rain Light Rain
7:00 AM 44.6 °F 40.2 °F 42.8 °F 93% 29.86 in 5.0 mi NW 8.1 mph - N/A Rain Light Rain
7:30 AM 44.6 °F 39.7 °F 42.8 °F 93% 29.86 in 4.3 mi NNW 9.2 mph - N/A Rain Light Rain
8:00 AM 45 °F - 42 °F 87% 29.87 in 4 mi NNW 13.4 mph - - Rain Heavy Rain
8:00 AM 44.6 °F 40.7 °F 42.8 °F 93% 29.86 in 3.7 mi NW 6.9 mph - N/A Rain Rain
8:30 AM 44.6 °F 41.4 °F 42.8 °F 93% 29.86 in 3.7 mi NW 5.8 mph - N/A Rain Rain
9:00 AM 44.6 °F 40.2 °F 42.8 °F 93% 29.86 in 3.7 mi NW 8.1 mph - N/A Rain Rain
9:23 AM 44.6 °F 39.7 °F 42.8 °F 93% 29.86 in 3.7 mi NNW 9.2 mph - N/A Rain Rain
9:30 AM 44.6 °F 39.7 °F 42.8 °F 93% 29.86 in 4.3 mi NNW 9.2 mph - N/A Rain Light Rain
10:00 AM 44.6 °F 40.2 °F 42.8 °F 93% 29.86 in 5.0 mi NNW 8.1 mph - N/A Rain Light Rain
10:30 AM 44.6 °F 39.7 °F 42.8 °F 93% 29.86 in 6.2 mi NW 9.2 mph - N/A Rain Light Rain
11:00 AM 46.4 °F 41.9 °F 42.8 °F 87% 29.86 in 5.6 mi NNW 9.2 mph - N/A Rain Light Rain
11:30 AM 46.4 °F 42.4 °F 42.8 °F 87% 29.86 in 5.6 mi NNW 8.1 mph - N/A Rain Light Rain
12:00 PM 46.4 °F 41.1 °F 42.8 °F 87% 29.83 in 5.6 mi NW 11.5 mph - N/A Rain Light Rain
12:30 PM 46.4 °F 40.7 °F 42.8 °F 87% 29.83 in 5.6 mi NW 12.7 mph - N/A Rain Light Rain
1:00 PM 46.4 °F 42.9 °F 42.8 °F 87% 29.83 in 5.6 mi NW 6.9 mph - N/A Rain Light Rain
1:30 PM 46.4 °F 41.5 °F 42.8 °F 87% 29.83 in 5.6 mi WNW 10.4 mph - N/A Rain Light Rain
2:00 PM 47 °F - 44 °F 86% 29.86 in 6 mi NW 11.2 mph - - Rain Light Rain
2:00 PM 46.4 °F 41.1 °F 44.6 °F 93% 29.83 in 5.6 mi NW 11.5 mph - N/A Rain Light Rain
2:30 PM 46.4 °F 40.7 °F 44.6 °F 93% 29.83 in 5.6 mi NW 12.7 mph - N/A Rain Light Rain
3:00 PM 46.4 °F 40.7 °F 44.6 °F 93% 29.83 in 6.2 mi NW 12.7 mph - N/A Rain Light Rain
3:30 PM 48.2 °F - 42.8 °F 82% 29.83 in 6.2 mi NW 13.8 mph - N/A Rain Light Rain
4:00 PM 48.2 °F - 42.8 °F 82% 29.86 in 6.2 mi WNW 11.5 mph - N/A   Overcast
4:30 PM 46.4 °F 40.7 °F 42.8 °F 87% 29.86 in 6.2 mi WNW 12.7 mph - N/A   Overcast
5:00 PM 46.4 °F 41.1 °F 41.0 °F 81% 29.86 in 6.2 mi WNW 11.5 mph - N/A   Mostly Cloudy
5:30 PM 46.4 °F 40.1 °F 41.0 °F 81% 29.86 in 6.2 mi WNW 15.0 mph - N/A   Overcast
6:00 PM 46.4 °F 41.1 °F 41.0 °F 81% 29.86 in 6.2 mi WNW 11.5 mph - N/A   Mostly Cloudy
6:30 PM 46.4 °F 42.4 °F 41.0 °F 81% 29.86 in 6.2 mi NW 8.1 mph - N/A   Scattered Clouds
7:00 PM 46.4 °F 43.5 °F 41.0 °F 81% 29.86 in 6.2 mi West 5.8 mph - N/A   Scattered Clouds
7:30 PM 46.4 °F 41.9 °F 42.8 °F 87% 29.89 in 6.2 mi WSW 9.2 mph - N/A   Partly Cloudy
8:00 PM 46 °F - 42 °F 80% 29.93 in 12 mi WSW 8.9 mph - -   Partly Cloudy
8:00 PM 46.4 °F 41.9 °F 42.8 °F 87% 29.89 in - WSW 9.2 mph - N/A   Clear
8:30 PM 46.4 °F 42.4 °F 41.0 °F 81% 29.92 in - WSW 8.1 mph - N/A   Clear
9:00 PM 44.6 °F 41.4 °F 42.8 °F 93% 29.92 in - SW 5.8 mph - N/A   Clear
9:30 PM 44.6 °F 41.4 °F 42.8 °F 93% 29.92 in - WSW 5.8 mph - N/A   Clear
10:00 PM 44.6 °F 40.7 °F 42.8 °F 93% 29.95 in - SW 6.9 mph - N/A   Clear
10:30 PM 44.6 °F 42.2 °F 42.8 °F 93% 29.95 in - SW 4.6 mph - N/A   Clear
11:00 PM 44.6 °F 42.2 °F 41.0 °F 87% 29.95 in - SSW 4.6 mph - N/A   Clear
11:30 PM 44.6 °F 41.4 °F 41.0 °F 87% 29.95 in - SSW 5.8 mph - N/A   Clear